Avoca, PA

5:31 AM EST on November 22, 2019 (GMT -0500)
Wilkes-Barre-Scranton International

Weather History for KAVP - September, 2019

Change the Weather History Date:

Wednesday, September 18, 2019

  Actual Average Record
Temperature  
Mean Temperature 62 °F 61 °F  
Max Temperature 75 °F 72 °F 88 °F (1948)
Min Temperature 48 °F 51 °F 35 °F (1943)
Degree Days  
Heating Degree Days 3 5  
Month to date heating degree days 11 52  
Since 1 July heating degree days 12 78  
Cooling Degree Days 0 1  
Month to date cooling degree days 61 42  
Year to date cooling degree days 800 566  
Growing Degree Days 12 (Base 50)    
Moisture  
Dew Point 45 °F    
Average Humidity 57    
Maximum Humidity 86    
Minimum Humidity 27    
Precipitation  
Precipitation 0.00 in 0.14 in 3.49 in (2004)
Month to date precipitation 0.55 2.38  
Year to date precipitation 38.21 27.41  
Sea Level Pressure  
Sea Level Pressure 30.24 in    
Wind  
Wind Speed 6 mph (ENE)    
Max Wind Speed 14 mph    
Max Gust Speed 22 mph    
Visibility 10 miles    
Events      
T = Trace of Precipitation, MM = Missing Value Source: NWS Daily Summary

Daily Weather History Graph

Daily Weather History Graph

Search for Another Location

Airport or City:

Astronomy

Sep. 18, 2019 Rise Set
Actual Time 6:46 AM EDT 7:07 PM EDT
Civil Twilight 6:18 AM EDT 7:34 PM EDT
Nautical Twilight 5:45 AM EDT 8:07 PM EDT
Astronomical Twilight 5:12 AM EDT 8:40 PM EDT
Moon 9:37 PM EDT (9/18) 10:49 AM EDT (9/18)
Length of Visible Light 13h 16m
Length of Day
12h 21m
Waning Gibbous, 82% of the Moon is Illuminated
Sep 18
Waning Gibbous
Sep 21
Last Quarter
Sep 28
New
Oct 5
First Quarter
Oct 13
Full

Hourly Weather History & Observations

Time (EDT) Temp. Dew Point Humidity Pressure Visibility Wind Dir Wind Speed Gust Speed Precip Events Conditions
12:54 AM 52.0 °F 46.9 °F 83% 30.19 in 10.0 mi ESE 5.8 mph - N/A   Clear
1:54 AM 51.1 °F 46.9 °F 86% 30.19 in 10.0 mi ESE 5.8 mph - N/A   Clear
2:54 AM 51.1 °F 46.0 °F 83% 30.19 in 10.0 mi ESE 4.6 mph - N/A   Clear
3:54 AM 50.0 °F 46.0 °F 86% 30.20 in 10.0 mi East 5.8 mph - N/A   Clear
4:54 AM 48.9 °F 45.0 °F 86% 30.20 in 10.0 mi ESE 5.8 mph - N/A   Clear
5:54 AM 48.0 °F 45.0 °F 89% 30.23 in 10.0 mi East 4.6 mph - N/A   Clear
6:54 AM 48.0 °F 44.1 °F 86% 30.25 in 10.0 mi ESE 5.8 mph - N/A   Clear
7:54 AM 50.0 °F 45.0 °F 83% 30.26 in 10.0 mi ESE 4.6 mph - N/A   Clear
8:54 AM 57.0 °F 46.9 °F 69% 30.27 in 10.0 mi Calm Calm - N/A   Clear
9:54 AM 60.1 °F 48.0 °F 64% 30.27 in 10.0 mi NNW 3.5 mph - N/A   Clear
10:54 AM 66.0 °F 46.9 °F 50% 30.27 in 10.0 mi ENE 5.8 mph - N/A   Clear
11:54 AM 69.1 °F 43.0 °F 39% 30.25 in 10.0 mi NNE 9.2 mph - N/A   Clear
12:54 PM 71.1 °F 42.1 °F 35% 30.25 in 10.0 mi Variable 6.9 mph - N/A   Clear
1:54 PM 73.0 °F 41.0 °F 31% 30.23 in 10.0 mi North 10.4 mph - N/A   Clear
2:54 PM 73.9 °F 39.0 °F 28% 30.22 in 10.0 mi NNE 5.8 mph - N/A   Clear
3:54 PM 75.0 °F 39.9 °F 28% 30.21 in 10.0 mi Variable 4.6 mph - N/A   Clear
4:54 PM 75.0 °F 39.9 °F 28% 30.21 in 10.0 mi NE 10.4 mph - N/A   Clear
5:54 PM 73.0 °F 42.1 °F 33% 30.22 in 10.0 mi ENE 5.8 mph - N/A   Clear
6:54 PM 68.0 °F 45.0 °F 43% 30.23 in 10.0 mi Variable 3.5 mph - N/A   Clear
7:54 PM 61.0 °F 46.9 °F 60% 30.26 in 10.0 mi East 6.9 mph - N/A   Clear
8:54 PM 59.0 °F 46.9 °F 64% 30.27 in 10.0 mi ESE 6.9 mph - N/A   Clear
9:54 PM 57.0 °F 48.0 °F 72% 30.29 in 10.0 mi ENE 4.6 mph - N/A   Clear
10:54 PM 55.0 °F 46.9 °F 74% 30.30 in 10.0 mi NE 10.4 mph - N/A   Clear
11:54 PM 54.0 °F 46.0 °F 75% 30.31 in 10.0 mi ENE 5.8 mph - N/A   Clear